Regional Weather Roundup
Issued by NWS San Diego, CA

Home | Current Version | Previous Version | Text Only | Print | Product List | Glossary On
Versions: 1 2 3 4 5 6 7 8 9 10 11 12 13 14 15 16 17 18 19 20 21 22 23 24 25 26 27 28 29 30 31 32 33 34 35 36 37 38 39 40 41 42 43 44 45 46 47 48 49 50
000
ASUS46 KSGX 030411
RWRSGX

SAN DIEGO HOURLY WEATHER ROUNDUP
NATIONAL WEATHER SERVICE SAN DIEGO CA
900 PM PDT SUN AUG 02 2015

NOTE: "FAIR" INDICATES FEW OR NO CLOUDS BELOW 12,000 FEET WITH NO
SIGNIFICANT WEATHER AND/OR OBSTRUCTIONS TO VISIBILITY.

CAZ042-043-060-061-PZZ750-775-030500-

GREATER SAN DIEGO AREA

CITY           SKY/WX    TMP DP  RH WIND       PRES   REMARKS
LINDBERGH FLD  MOCLDY    70  63  78 NW5       29.87S
POINT LOMA       N/A     66  61  84 NW10        N/A
NATIONAL CITY    N/A     71  66  85 CALM      29.86S
CHULA VISTA      N/A     69  66  89 W2        29.79S
IMPERIAL BEACH CLOUDY   N/A N/A N/A NW7       29.87R
BROWN FIELD    CLOUDY    67  64  90 VRB5      29.87R
MIRAMAR MCAS   PTCLDY    71  62  73 NW3       29.87R
MONTGOMERY FLD PTCLDY    69  63  81 W5        29.87R

$$

NORTH SAN DIEGO COUNTY

CITY           SKY/WX    TMP DP  RH WIND       PRES   REMARKS
CAMP PENDLETON CLEAR     70  63  78 S3        29.85S
OCEANSIDE AP   CLOUDY    71  65  81 S5        29.84S
VISTA            N/A     69  64  84 CALM      29.83S
CARLSBAD       CLOUDY    69  64  84 S3        29.85S
DEL MAR          N/A     69  65  87 CALM      29.88R
FALLBROOK        N/A     68  67  96 CALM      29.85R
ESCONDIDO        N/A     71  64  79 CALM      29.87S
POWAY            N/A     69  63  83 CALM      29.86S

$$

EAST SAN DIEGO COUNTY

CITY           SKY/WX    TMP DP  RH WIND       PRES   REMARKS
RAMONA         CLEAR     67  61  81 W6        29.89R
SANTEE LAKES     N/A     69  64  83 CALM      29.84S
LA MESA          N/A     68  64  86 CALM      29.79R
JAMUL            N/A     68  63  85 CALM      29.84S
DESCANSO N       N/A     65  54  66 CALM      29.70R
CAMPO            N/A     69  60  73 S6        29.90R

$$

ORANGE COUNTY AND THE LOS ANGELES BASIN

CITY           SKY/WX    TMP DP  RH WIND       PRES   REMARKS
JOHN WAYNE AP  PTCLDY    71  65  81 S6        29.84S
LAKE FOREST FR   N/A     70  62  77 CALM      29.75R
SANTA ANA        N/A     75  66  74 CALM      29.79S
HUNTINGTON BCH   N/A     70  67  89 W3        29.86R
LOS ALAMITOS   FAIR      71  64  78 NW5       29.84R
FULLERTON      CLEAR     75  63  66 CALM      29.83R
LONG BEACH     CLEAR     73  61  65 W7        29.84R
L.A. AP        PTCLDY    70  64  81 W9        29.84R
L.A. DOWNTOWN  CLEAR     71  62  73 CALM      29.83S

$$

THE INLAND EMPIRE

CITY           SKY/WX    TMP DP  RH WIND       PRES   REMARKS
CORONA         CLEAR     75  64  68 W6        29.84R
CHINO          CLEAR     75  64  68 W8        29.86R
ONTARIO        PTCLDY    76  63  64 SW9       29.85R
SAN BERNARDINO PTCLDY    77  59  53 SW8       29.86R HAZE
RIVERSIDE AP   CLEAR     78  62  57 W7        29.85R
MORENO VALLEY    N/A     79  64  61 CALM      29.84R
MARCH ARB      CLEAR     76  62  61 NW5       29.87R
HORSETHIEF CYN   N/A     76  59  55 W3        29.85R
PERRIS           N/A     78  64  61 W5        29.87R
MENIFEE          N/A     77  65  68 S5        29.90R
HEMET EAST       N/A     79  58  47 CALM      29.85R
FRENCH VALLEY  FAIR      72  61  68 SE5       29.88S
TEMECULA         N/A     74  64  69 SW5       29.82R

$$

SAN BERNARDINO AND RIVERSIDE COUNTY MOUNTAINS

CITY           SKY/WX    TMP DP  RH WIND       PRES   REMARKS
BIG BEAR AP    CLEAR     64  34  32 CALM      30.23R
PINE COVE        N/A     68  35  29 CALM      29.80R

$$

SOUTHERN DESERT INCLUDING THE COACHELLA VALLEY

CITY           SKY/WX    TMP DP  RH WIND       PRES   REMARKS
PALM SPRINGS   CLEAR    101  53  20 NW18      29.70R HX  99
THOUSAND PALMS   N/A     97  57  25 NW8       29.66R HX  96
THERMAL        CLEAR    101  53  20 N10       29.63R HX  99
BLYTHE         CLEAR    104  48  15 SW9       29.66R HX 100
IMPERIAL AP    CLEAR     99  41  13 W12       29.65R
EL CENTRO NAS  CLEAR     99  36  11 S13       29.67R
YUMA AZ        CLEAR     99  50  19 S8        29.68R HX  96
MEXICALI       CLEAR     95  50  21 SE6       29.66R

$$

UPPER DESERT

CITY           SKY/WX    TMP DP  RH WIND       PRES   REMARKS
VICTORVILLE AP CLEAR     84  37  18 CALM      29.92R
HESPERIA         N/A     83  42  23 SW3       29.84S
APPLE VALLEY     N/A     83  38  20 CALM      29.95R
PALMDALE       PTCLDY    82  43  25 W13       29.90R
LANCASTER      PTCLDY    83  43  24 W16       29.89R
EDWARDS AFB    PTCLDY    85  42  21 SW14      29.85R
DAGGETT        CLEAR     93  40  15 W22       29.81R
29 PALMS N     CLEAR     93  41  16 W15       29.87R
NEEDLES        CLEAR    101  43  13 W13       29.70R HX  96

$$

REGIONAL REPORTS

CITY           SKY/WX    TMP DP  RH WIND       PRES   REMARKS
SANTA BARBARA  CLEAR     73  62  68 NE5       29.81S
SANDBERG       CLEAR     75  43  31 W3        30.07S
LAS VEGAS NV   PTCLDY    97  48  18 NE7       29.76R
PHOENIX AZ     PTCLDY    99  52  20 SW6       29.71R HX  96
TIJUANA        PTCLDY    66  61  82 W7        29.88S
ENSENADA NW      N/A     69  32  25 NW7       29.84R

$$

OFFSHORE ISLANDS

CITY           SKY/WX    TMP DP  RH WIND       PRES   REMARKS
CATALINA ARPT  CLEAR     66  57  72 W7        29.90S
SAN NICOLAS IS CLEAR    N/A N/A N/A NW29G39   29.86S

$$

MARINE AND OFFSHORE BUOY REPORTS

STATION/POSITION SKY/WX   TEMP    WIND        PRES    SWELL
                          AIR SEA DIR/SP/G            HT/PER/DIR
                          (F)     (DEG/KT/KT) (MB)    (FT/S/D)
TANNER BANKS               67 68  310/ 19/ 23 1011.5S   2/130/16
S CLEMENTE BASIN           68 70  300/ 14/ 16 1011.0R   3/ 40/16
SAN NICOLAS IS.               66                N/A     2/190/17
SO. S. ROSA ISLA           65 67  310/ 23/ 27 1010.4R   2/ 8
W. S. BARBARA CH           63 63  310/ 21/ 25 1010.9R   2/220/14
M. S. BARBARA CH           69 69  270/ 19/ 23 1009.6F
S. MONICA BASIN            71 73  260/  6/  8 1009.9R   3/260/ 6
S PEDRO CHANNEL               72                N/A
DANA POINT                    72                N/A     2/210/17
OCEANSIDE OFFSHR              73                N/A     2/210/17
TORREY PINES OTR              73                N/A     2/220/14
LA JOLLA 1                 69 71  330/  5/  8 1010.8R
MISSION BAY BUOY              72                N/A     2/190/17
SAN DIEGO BAY                 75              1011.4R
POINT LOMA SOUTH              73                N/A     2/200/17

$$



USA.gov is the U.S. government's official web portal to all federal, state and local government web resources and services.